Lawrence, KS

2:31 AM CST on February 09, 2016 (GMT -0600)
Lawrence Municipal

Weather History for KLWC - May, 2013

Change the Weather History Date:

Friday, May 3, 2013

  Actual Average Record
Temperature  
Mean Temperature 42 °F 60 °F  
Max Temperature 47 °F 72 °F 86 °F (2012)
Min Temperature 37 °F 49 °F 26 °F (2005)
Degree Days  
Heating Degree Days 23 6  
Month to date heating degree days 54 18  
Since 1 July heating degree days 5168 4997  
Cooling Degree Days 0 1  
Month to date cooling degree days 0 3  
Year to date cooling degree days 13 26  
Moisture  
Dew Point 34 °F    
Average Humidity 75    
Maximum Humidity 92    
Minimum Humidity 58    
Precipitation  
Precipitation 0.09 in 0.18 in 1.11 in (2001)
Month to date precipitation 0.99 0.54  
Year to date precipitation 9.11 9.24  
Sea Level Pressure  
Sea Level Pressure 30.11 in    
Wind  
Wind Speed 15 mph (NNW)    
Max Wind Speed 26 mph    
Max Gust Speed 32 mph    
Visibility 8 miles    
Events Rain    
T = Trace of Precipitation, MM = Missing Value Source: NWS Daily Summary

Daily Weather History Graph

Daily Weather History Graph

Search for Another Location

Airport or City:

Trip Planner

Search our weather history database for the weather conditions in past years. The results will help you decide how hot, cold, wet, or windy it might be!

Date:

Astronomy

May. 03, 2013 Rise Set
Actual Time 6:20 AM CDT 8:15 PM CDT
Civil Twilight 5:51 AM CDT 8:44 PM CDT
Nautical Twilight 5:15 AM CDT 9:20 PM CDT
Astronomical Twilight 4:37 AM CDT 9:58 PM CDT
Moon 2:42 AM CDT (5/3) 2:14 PM CDT (5/3)
Length of Visible Light 14h 53m
Length of Day
13h 55m
Last Quarter, 37% of the Moon is Illuminated
May 3
Last Quarter
May 9
New
May 17
First Quarter
May 24
Full
May 31
Last Quarter

Hourly Weather History & Observations

Time (CDT) Temp. Windchill Dew Point Humidity Pressure Visibility Wind Dir Wind Speed Gust Speed Precip Events Conditions
12:52 AM 39.0 °F 33.4 °F 35.1 °F 86% 30.33 in 9.0 mi NNW 8.1 mph - N/A   Overcast
1:52 AM 39.0 °F 32.8 °F 34.0 °F 82% 30.30 in 9.0 mi NNW 9.2 mph - N/A   Overcast
2:52 AM 39.9 °F 33.4 °F 34.0 °F 79% 30.27 in 10.0 mi NW 10.4 mph - N/A   Overcast
3:52 AM 39.0 °F 34.0 °F 34.0 °F 82% 30.27 in 9.0 mi NNW 6.9 mph - N/A   Overcast
4:52 AM 39.0 °F 33.4 °F 34.0 °F 82% 30.25 in 9.0 mi NNW 8.1 mph - N/A   Overcast
5:52 AM 39.0 °F 32.3 °F 33.1 °F 79% 30.23 in 9.0 mi NNW 10.4 mph - N/A   Overcast
6:52 AM 39.0 °F 31.8 °F 32.0 °F 76% 30.24 in 8.0 mi NNW 11.5 mph - N/A   Overcast
7:52 AM 39.0 °F 30.3 °F 32.0 °F 76% 30.22 in 8.0 mi NNW 16.1 mph 20.7 mph N/A   Overcast
8:52 AM 39.0 °F 29.9 °F 32.0 °F 76% 30.21 in 8.0 mi NNW 17.3 mph 25.3 mph N/A   Overcast
9:52 AM 39.9 °F 30.8 °F 32.0 °F 73% 30.18 in 9.0 mi NNW 18.4 mph 25.3 mph N/A   Overcast
10:52 AM 42.1 °F 33.9 °F 32.0 °F 67% 30.17 in 9.0 mi NNW 17.3 mph 26.5 mph N/A   Overcast
11:52 AM 43.0 °F 33.3 °F 32.0 °F 65% 30.16 in 9.0 mi NNW 25.3 mph 32.2 mph N/A   Overcast
12:25 PM 44.6 °F 36.1 °F 32.0 °F 61% 30.13 in 10.0 mi NNW 21.9 mph 27.6 mph N/A   Overcast
12:52 PM 45.0 °F 36.6 °F 32.0 °F 60% 30.13 in 10.0 mi NNW 21.9 mph 28.8 mph N/A   Overcast
1:52 PM 44.1 °F 35.7 °F 30.0 °F 58% 30.10 in 10.0 mi North 20.7 mph 31.1 mph N/A   Overcast
2:52 PM 45.0 °F 37.1 °F 30.9 °F 58% 30.08 in 10.0 mi North 19.6 mph 29.9 mph N/A   Overcast
3:52 PM 46.0 °F 38.0 °F 32.0 °F 58% 30.06 in 10.0 mi NNW 21.9 mph 32.2 mph N/A   Overcast
4:52 PM 42.1 °F 32.8 °F 33.1 °F 70% 30.07 in 8.0 mi NNW 21.9 mph 29.9 mph 0.00 in Rain Light Rain
5:29 PM 41.0 °F 32.2 °F 33.8 °F 76% 30.05 in 8.0 mi NNW 18.4 mph 29.9 mph 0.00 in   Overcast
5:37 PM 41.0 °F 32.2 °F 33.8 °F 76% 30.05 in 8.0 mi North 18.4 mph - 0.00 in   Overcast
5:52 PM 41.0 °F 32.5 °F 34.0 °F 76% 30.06 in 8.0 mi North 17.3 mph 25.3 mph 0.00 in   Overcast
6:52 PM 39.9 °F 34.5 °F 35.1 °F 83% 30.06 in 5.0 mi North 8.1 mph - 0.00 in Rain Light Rain
7:05 PM 39.2 °F 32.5 °F 35.6 °F 87% 30.04 in 4.0 mi North 10.4 mph - 0.00 in Rain Light Rain
7:26 PM 39.2 °F 32.0 °F 35.6 °F 87% 30.03 in 5.0 mi North 11.5 mph - 0.00 in Rain Light Rain
7:52 PM 39.0 °F 30.6 °F 35.1 °F 86% 30.04 in 5.0 mi NNW 15.0 mph - 0.01 in Rain Light Rain
8:15 PM 39.2 °F 31.2 °F 35.6 °F 87% 30.02 in 6.0 mi NNW 13.8 mph 25.3 mph 0.00 in Rain Light Rain
8:52 PM 39.0 °F 31.4 °F 35.1 °F 86% 30.03 in 6.0 mi NNW 12.7 mph - 0.01 in Rain Light Rain
9:06 PM 37.4 °F 28.9 °F 35.6 °F 93% 30.01 in 4.0 mi NNW 13.8 mph - 0.00 in Rain Light Rain
9:52 PM 37.9 °F 30.0 °F 35.1 °F 89% 30.01 in 5.0 mi NW 12.7 mph - 0.03 in Rain Light Rain
10:52 PM 37.9 °F 30.9 °F 35.1 °F 89% 29.98 in 5.0 mi NNW 10.4 mph - 0.02 in Rain Light Rain
11:04 PM 37.4 °F 30.3 °F 35.6 °F 93% 29.96 in 5.0 mi NNW 10.4 mph - 0.00 in Rain Light Rain
11:13 PM 37.4 °F 30.3 °F 35.6 °F 93% 29.96 in 6.0 mi NNW 10.4 mph - 0.01 in Rain Light Rain
11:52 PM 37.9 °F 29.2 °F 35.1 °F 89% 29.95 in 3.0 mi North 15.0 mph 20.7 mph 0.01 in Rain Light Rain